Location: Kawakawa
(35.3830°S, 174.0670°E)
Time: 04:43:26
(UTC+13:00)

Spot 2 Rocket - Pass Details

Date: 24 January 2019
Orbit: 757 x 772 km, 98.6° (Epoch: 17 October)

Event Time Altitude Azimuth Distance (km) Brightness Sun altitude
Rises 23:15:35 0° 174° (S) 3,276 7.4 -26.1°
Reaches altitude 10° 23:17:59 10° 179° (S) 2,340 6.6 -26.4°
Maximum altitude 23:22:56 49° 252° (WSW) 992 4.3 -27.0°
Enters shadow 23:24:45 34° 304° (NW) 1,256 4.5 -27.2°
